OPS 4682 DEB, 19185

Orbit data source: Space-Track

OPS 4682 DEB, 19185 is space debris in LEO originally from a launch on Sat, 03 Apr 1965 UTC launched from the Air Force Western Test Range (AFWTR). Debris objects in space refer to the collection of defunct objects orbiting the Earth. Examples of debris include non-operational satellites, rocket bodies, and fragments generated from explosions, collisions, or faulty payload assembly.

Loading next visibility...
Identifier
19185, 1965-027AR
Orbit
LEO
Country
Flag of USUS
Related business
Manufacturer
Unknown
Mission
Spacecraft
Bus & Motor
Unknown
Mass
Unknown
Launch date (UTC)
1965-04-03 (61 years ago)
Launch vehicle
Unknown
Launch site
Air Force Western Test Range (AFWTR)
Object type
Payload
Rocket body
Debris
Shape & HBR
Unknown shape, 0.1 m
Radar Cross Section
Medium (>0.1 m² and <1 m²)

Expand to show TLE details & history
Last TLE update: 10 hours ago

TLE from 10 hours ago
0 OPS 4682 DEB
1 19185U 65027AR  26235.60746288  .00000056  00000-0  16810-3 0  9993
2 19185  90.2516   5.9236 0033707 254.0959 118.8647 12.97799005958857
Epoch: 2026-08-23T14:34Z
TLE epoch observation values (Epoch: 2026-08-23T14:34:44.792Z)
Latitude
13.26269°
Longitude
175.27687°
Altitude
1,285.379 km
Speed
7.208 km/s
True Right ascension
00h 23m 27s
True Declination
13° 11' 29"
Sunlit
Object was in full shadow at epoch
Visualization orbit readout
Latitude
Unknown
Longitude
Unknown
Altitude
Unknown
Speed
Unknown
Apparent Right ascension
Unknown
Apparent Declination
Unknown
Sunlit
N/A
Visualization observer readout
Local Sidereal Time
15:54:10
Azimuth
Unknown
Elevation
Unknown
Doppler factor
Unknown
Orbital elements
Apogee altitude
1,293.625 km
Perigee altitude
1,242.08 km
Semi-major axis
7,645.99 km
Eccentricity
0.00337
Inclination
90.2516°
RAAN
5.9236°
Arg. of periapsis
254.0959°
True anomaly
119.20228°
Mean anomaly
118.8647°
Eccentric anomaly
119.03356°
Mean motion
3.24633 °/min
Orbital period
110.89 mins
BSTAR
0.0001681
Loading maneuver chart data...
Computing Atmospheric mass density...
Loading historical data...
Loading historical data...
Loading historical data...
Loading historical data...
Loading historical data...
Loading historical data...
Loading historical data...

Documentation

Showing up to 5 results
|